User: anonymous   Login
Location: Irma
(52.9170°N, 111.2330°W)
Time: 14:18:04
(UTC-06:00)
Language:

deb Chang Zheng 4 - Orbit

View from above orbital plane
View from above orbital plane
View from above satellite
View from above satellite

Ground track
Ground track

The orbit data is extracted from the following two-line orbital elements,

1 20847U 90081K   15183.77061218  .00003700  00000-0  55870-3 0  9997
2 20847 098.5816 012.2677 0019339 176.3471 312.0107 14.74851326300120
Epoch (UTC): 02 July 2015 18:29:40
Eccentricity: 0.0019339
inclination: 98.5816°
perigee height: 632 km
apogee height: 659 km
right ascension of ascending node: 12.2677°
argument of perigee: 176.3471°
revolutions per day: 14.74851326
mean anomaly at epoch: 312.0107°
orbit number at epoch: 30012

The dashed part of the orbit path shows where the satellite is in the earth's shadow,  

DLR